Home > Weather > Cork > Past weeks

Flag for Ireland Past Weather in Cork, Ireland — Yesterday and Last 2 Weeks

Now
53 °F

Partly sunny.


Feels Like: 51 °F
Forecast: 40 / 58 °F
Wind: 7 mph from East

Location: Cork Airport

Current Time: May 25, 2016 at 4:11:18 PM

Latest Report: May 25, 2016 at 3:00 PM


Visibility: 37 mi

Pressure: 30.09 "Hg

Humidity: 65%

Dew Point: 42 °F

Location of CorkLocation

Past Weather in Cork — Graph

°F

Cork Temperature Yesterday

Maximum temperature yesterday: 57 °F (at 2:00 PM)
Minimum temperature yesterday: 43 °F (at 5:00 AM)
Average temperature yesterday: 51 °F

High & Low Weather Summary for the Past Weeks

 TemperatureHumidityPressure
High70 °F (May 13, 3:00 PM)100% (May 10, 10:00 PM)30.26 "Hg (May 10, 10:00 PM)
Low42 °F (May 23, 6:00 AM)45% (May 23, 4:00 PM)29.56 "Hg (May 21, 5:00 AM)
Average53 °F84%29.91 "Hg
* Reported May 10 3:00 PM — May 25 3:00 PM, Cork, Weather by CustomWeather, © 2016

Note: Actual official high and low records may vary slightly from our data, if they occured in-between our weather recording intervals... More about our weather records

Advertising

Cork Weather History for the Previous 24 Hours

Scroll right to see more
 ConditionsComfort  
Time TempWeatherWind HumidityBarometerVisibility
3:00 PM
Wed, May 25
53 °FPartly sunny.7 mph65%30.09 "Hg37 mi
2:00 PM55 °FPartly sunny.7 mph63%30.09 "Hg37 mi
1:00 PM56 °FOvercast.8 mph61%30.09 "Hg37 mi
12:00 PM53 °FOvercast.7 mph75%30.10 "Hg37 mi
11:00 AM54 °FPartly sunny.8 mph78%30.10 "Hg31 mi
10:00 AM54 °FPartly sunny.9 mph78%30.11 "Hg25 mi
9:00 AM53 °FPartly sunny.8 mph84%30.11 "Hg25 mi
8:00 AM51 °FScattered clouds.8 mph84%30.11 "Hg31 mi
7:00 AM49 °FOvercast.5 mph85%30.11 "Hg31 mi
6:00 AM48 °FOvercast.6 mph85%30.11 "Hg37 mi
5:00 AM47 °FPassing clouds.2 mph84%30.10 "Hg22 mi
4:00 AM48 °FPassing clouds.3 mph83%30.10 "Hg19 mi
3:00 AM49 °FPassing clouds.5 mph72%30.10 "Hg19 mi
2:00 AM49 °FPassing clouds.5 mph83%30.10 "Hg19 mi
1:00 AM51 °FPassing clouds.6 mph79%30.10 "Hg19 mi
12:00 AM51 °FPassing clouds.6 mph81%30.11 "Hg19 mi
11:00 PM
Tue, May 24
51 °FClear.5 mph81%30.11 "Hg31 mi
10:00 PM52 °FPassing clouds.5 mph79%30.11 "Hg43 mi
9:00 PM53 °FPassing clouds.5 mph77%30.11 "Hg37 mi
8:00 PM54 °FPassing clouds.8 mph68%30.10 "Hg34 mi
7:00 PM56 °FPassing clouds.8 mph70%30.10 "Hg34 mi
6:00 PM56 °FPassing clouds.9 mph76%30.10 "Hg31 mi
5:00 PM56 °FScattered clouds.12 mph74%30.10 "Hg28 mi
4:00 PM55 °FPassing clouds.10 mph73%30.11 "Hg31 mi
Weather by CustomWeather, © 2016

See weather overviewHow to use our weather pages